Location: ?????????
(54.7630°N, 39.4991°E)
Time: 01:17:38
(UTC+00:00)

ARIANE 5 R/B - Pass Details

Date: 14 April 2026
Orbit: 614 x 648 km, 98.0° (Epoch: 14 September)

Event Time Altitude Azimuth Distance (km) Brightness Sun altitude
Exits shadow 20:26:44 84° 340° (NNW) 630 2.5 -24.5°
Drops below altitude 10° 20:30:57 10° 345° (NNW) 2,004 6.2 -24.7°
Sets 20:33:10 0° 345° (NNW) 2,920 7.4 -24.8°
